Voltar ao catálogo

FENGYUN 1C DEB

AtivoPO
NORAD 38512·DEBRIS·🇨🇳 China

Lançado May 10, 1999 de Taiyuan Satellite Launch Center

Loading…

Próximas Passagens (próximas 24 horas)

TLE

AtualizadoSource: Space-Track

Época: Sep 12, 2026, 13:36 UTC

1 38512U 99025ESX 26255.56679443  .00000713  00000-0  65308-3 0  9994
2 38512  98.3588 108.9319 0227175  86.3826 276.3274 13.74625146633316

Acompanhe FENGYUN 1C DEB em tempo real com AllMySat

Download on the App Store